TimeEDT,TemperatureF,Dew PointF,Humidity,Sea Level PressureIn,VisibilityMPH,Wind Direction,Wind SpeedMPH,Gust SpeedMPH,PrecipitationIn,Events,Conditions,WindDirDegrees,DateUTC
12:53 AM,37.9,35.1,89,30.35,10.0,Calm,Calm,-,N/A,,Clear,0,2013-10-09 04:53:00
1:53 AM,37.9,35.1,89,30.35,10.0,Calm,Calm,-,N/A,,Clear,0,2013-10-09 05:53:00
2:53 AM,39.0,35.1,86,30.35,10.0,Calm,Calm,-,N/A,,Clear,0,2013-10-09 06:53:00
3:53 AM,35.1,33.1,92,30.35,10.0,Calm,Calm,-,N/A,,Clear,0,2013-10-09 07:53:00
4:53 AM,36.0,33.1,89,30.36,10.0,Calm,Calm,-,N/A,,Clear,0,2013-10-09 08:53:00
5:53 AM,36.0,33.1,89,30.36,10.0,Calm,Calm,-,N/A,,Clear,0,2013-10-09 09:53:00
6:53 AM,36.0,33.1,89,30.37,10.0,Calm,Calm,-,N/A,,Clear,0,2013-10-09 10:53:00
7:09 AM,34.0,30.9,89,30.35,1.2,Calm,Calm,-,N/A,,Clear,0,2013-10-09 11:09:00
7:14 AM,35.1,32.0,89,30.35,0.2,Calm,Calm,-,N/A,Fog,Fog,0,2013-10-09 11:14:00
7:21 AM,33.1,30.9,92,30.35,0.2,Calm,Calm,-,N/A,Fog,Fog,0,2013-10-09 11:21:00
7:25 AM,33.1,30.0,89,30.36,1.2,Calm,Calm,-,N/A,,Partly Cloudy,0,2013-10-09 11:25:00
7:27 AM,32.0,30.0,92,30.36,3.0,Calm,Calm,-,N/A,,Partly Cloudy,0,2013-10-09 11:27:00
7:53 AM,33.1,30.0,89,30.40,10.0,Calm,Calm,-,N/A,,Clear,0,2013-10-09 11:53:00
8:53 AM,39.0,36.0,89,30.41,10.0,Calm,Calm,-,N/A,,Clear,0,2013-10-09 12:53:00
9:53 AM,48.9,39.9,71,30.40,10.0,ESE,6.9,-,N/A,,Clear,110,2013-10-09 13:53:00
10:53 AM,54.0,37.9,55,30.40,10.0,SE,6.9,-,N/A,,Clear,130,2013-10-09 14:53:00
11:53 AM,57.0,37.9,49,30.40,10.0,ESE,8.1,-,N/A,,Clear,120,2013-10-09 15:53:00
12:53 PM,60.1,36.0,41,30.37,10.0,SE,5.8,-,N/A,,Clear,140,2013-10-09 16:53:00
1:53 PM,63.0,33.1,33,30.35,10.0,SE,8.1,-,N/A,,Clear,130,2013-10-09 17:53:00
2:53 PM,64.0,32.0,30,30.32,10.0,ESE,5.8,-,N/A,,Clear,120,2013-10-09 18:53:00
3:53 PM,64.0,28.9,27,30.33,10.0,SE,6.9,-,N/A,,Clear,130,2013-10-09 19:53:00
4:53 PM,64.0,30.9,29,30.31,10.0,SE,4.6,-,N/A,,Clear,140,2013-10-09 20:53:00
5:53 PM,61.0,33.1,35,30.31,10.0,SSE,3.5,-,N/A,,Clear,150,2013-10-09 21:53:00
6:53 PM,54.0,39.0,57,30.32,10.0,Calm,Calm,-,N/A,,Clear,0,2013-10-09 22:53:00
7:53 PM,51.1,37.9,61,30.33,10.0,Calm,Calm,-,N/A,,Clear,0,2013-10-09 23:53:00
8:53 PM,48.0,36.0,63,30.32,10.0,Calm,Calm,-,N/A,,Clear,0,2013-10-10 00:53:00
9:53 PM,45.0,35.1,68,30.32,10.0,Calm,Calm,-,N/A,,Clear,0,2013-10-10 01:53:00
10:53 PM,42.1,35.1,76,30.32,10.0,Calm,Calm,-,N/A,,Clear,0,2013-10-10 02:53:00
11:53 PM,42.1,34.0,73,30.31,10.0,Calm,Calm,-,N/A,,Clear,0,2013-10-10 03:53:00